Theta_e
367 365 362 353 334 329 323 324 331 327 330 335 335 335 334 337 332 327 350 354 356 354 358 363 367 369 368 367 369 368 367 367 366 365 365 365 366 365 365 364 364 364 364 364 364 362 361 360 361
361 357 350 344 326 319 321 329 327 331 335 339 338 337 336 333 341 345 347 353 355 355 356 359 366 368 368 368 367 368 366 366 364 364 364 364 365 365 363 363 364 364 364 364 363 361 359 359 361
354 352 340 335 324 319 320 328 332 334 337 336 334 340 337 332 342 346 353 354 355 354 356 360 367 368 366 365 366 367 366 364 365 364 364 366 365 365 362 360 364 365 364 364 363 363 358 358 362
350 348 344 322 319 325 325 330 333 332 337 338 337 334 339 346 345 351 354 355 355 356 357 360 366 364 365 365 367 365 364 365 367 367 367 366 365 362 361 360 362 362 361 361 363 363 362 358 359
347 340 323 319 320 326 331 333 332 331 335 336 336 333 337 349 353 354 353 354 354 357 357 360 366 366 365 365 364 364 365 366 366 365 364 363 361 360 361 360 360 362 362 362 362 362 361 360 360
335 335 319 315 318 326 331 334 334 333 335 336 335 336 338 352 351 352 353 353 354 355 357 360 364 365 364 364 364 365 365 365 364 365 364 363 362 362 361 361 360 359 360 361 360 360 359 359 357
330 326 320 319 318 323 329 336 332 333 334 335 339 333 342 346 352 352 354 355 353 353 353 356 358 363 364 366 366 366 365 364 363 361 360 361 359 356 357 360 361 361 360 360 359 358 357 356 355
335 329 319 320 317 323 332 335 337 336 335 343 343 334 337 347 351 353 354 354 353 353 352 355 357 357 359 360 363 364 363 361 360 358 351 357 350 354 353 354 356 358 357 356 356 355 356 354 354
335 323 317 319 319 326 334 331 338 342 338 341 341 340 346 351 351 350 351 350 350 350 351 352 353 355 356 359 361 363 361 360 357 353 353 352 351 352 349 353 354 355 355 356 355 356 358 356 357
329 321 320 326 327 327 331 332 335 335 336 338 339 345 349 350 350 347 347 347 349 349 348 350 352 353 355 354 362 364 363 361 353 350 352 350 351 348 344 347 351 353 353 355 357 358 357 356 353
326 321 325 327 329 332 330 333 336 331 329 336 337 342 346 347 347 346 346 347 347 349 349 349 354 355 355 356 359 364 366 359 353 350 347 348 350 350 343 349 351 354 354 352 354 355 352 349 352
321 325 326 329 332 331 329 335 334 332 333 340 342 345 345 344 344 344 345 346 347 348 349 349 354 356 357 356 357 359 361 359 354 355 353 353 346 346 350 347 349 351 357 354 351 351 352 353 351
321 323 325 330 332 332 333 332 335 334 338 342 343 343 342 343 344 346 347 347 349 347 348 350 354 357 357 359 356 360 362 355 350 356 351 354 350 349 350 351 353 351 347 347 348 349 351 349 348
323 323 324 329 331 332 330 333 335 337 339 340 341 341 342 342 343 346 347 347 349 350 349 349 353 357 358 358 361 360 361 352 350 352 357 352 360 354 351 357 356 357 356 349 349 350 350 348 346
323 319 323 326 329 328 331 326 328 340 339 337 338 340 342 344 345 346 348 349 352 353 354 353 352 354 358 358 358 358 361 354 348 349 353 354 360 357 354 363 350 359 359 356 350 351 351 348 345
319 320 315 323 328 329 329 320 334 341 338 335 337 339 341 344 346 349 350 351 353 353 355 357 354 353 356 357 358 355 357 356 353 352 349 350 355 359 360 361 359 355 360 359 351 348 346 343 343
317 313 313 316 326 325 325 319 333 340 339 335 337 337 339 342 346 349 351 353 354 355 355 356 357 355 357 360 357 359 354 354 355 357 354 350 353 359 360 354 361 360 351 358 361 352 348 344 344
312 312 314 314 320 324 322 320 330 337 338 337 336 337 339 340 343 348 351 353 354 357 358 360 359 360 361 360 361 358 356 357 357 355 355 357 353 351 353 350 355 359 350 356 357 355 356 355 350
316 314 312 315 318 320 321 320 324 334 335 335 337 336 337 339 345 348 349 352 353 355 358 360 361 364 362 360 357 356 355 358 359 357 359 356 357 353 356 355 354 359 351 356 357 355 353 352 351
316 313 313 316 319 321 319 318 323 327 332 334 335 338 338 340 344 341 335 341 350 354 358 360 362 365 364 361 361 360 360 359 360 361 362 362 359 357 356 356 356 355 355 357 355 355 354 351 356
316 312 312 313 317 318 316 314 319 326 330 334 336 339 341 342 339 336 332 334 339 349 355 358 362 364 366 365 362 361 361 360 358 358 360 360 361 358 357 356 358 357 357 352 353 349 355 356 350
313 315 314 312 312 309 315 307 315 322 324 330 334 337 339 342 338 336 335 334 339 347 353 358 361 364 364 366 362 362 355 353 355 357 359 361 362 360 359 359 359 358 357 355 352 355 352 355 356
313 316 314 313 312 311 312 308 317 321 323 329 334 336 337 342 343 339 338 341 342 350 351 354 359 361 364 364 364 360 359 356 356 359 361 361 364 365 362 360 359 359 357 357 356 355 355 363 359
317 315 314 314 313 306 311 310 311 319 322 326 333 337 337 339 344 345 347 348 350 351 351 352 357 361 363 363 363 363 361 359 358 359 358 359 359 361 363 363 361 360 360 359 358 358 357 357 361
316 313 306 305 304 306 313 312 316 322 325 326 330 337 339 342 343 345 346 347 350 349 350 352 357 360 363 361 361 361 361 362 362 359 355 358 369 357 363 364 362 360 361 365 361 359 358 356 353
315 314 307 299 301 305 315 308 317 326 330 332 336 339 341 342 345 345 346 348 346 349 354 354 355 357 359 359 360 361 360 353 348 351 352 354 355 357 363 365 364 363 363 362 363 360 357 357 354
313 310 314 308 308 305 311 314 322 326 327 331 336 339 340 343 346 347 345 346 349 348 349 354 358 361 360 359 360 355 355 354 352 354 356 354 359 360 364 364 363 364 365 364 363 359 359 358 357
315 316 308 309 301 300 307 308 311 321 325 330 334 337 339 342 343 345 348 349 348 348 350 355 358 357 355 354 357 355 355 353 354 354 354 356 359 365 366 365 364 365 365 364 362 364 362 360 357
312 311 312 311 309 304 302 308 323 323 326 328 335 337 338 342 344 344 347 350 352 351 349 348 352 354 354 355 358 357 356 357 361 359 360 363 365 367 367 367 365 364 364 363 358 361 360 359 358
316 314 313 308 308 310 309 309 326 326 326 331 336 337 336 341 345 346 346 345 346 347 349 349 351 351 352 354 354 351 354 357 357 357 355 358 362 368 367 365 363 361 363 359 357 357 358 357 355
Wind_Speed
12 9 3 5 4 7 13 10 3 9 10 8 5 7 13 13 9 8 13 10 19 17 17 16 16 17 18 18 16 17 17 17 16 15 14 14 14 15 15 13 12 13 13 14 15 14 15 15 14
5 2 5 4 2 8 10 11 13 12 11 9 8 4 6 12 10 15 10 14 17 17 17 17 14 16 17 17 16 16 15 15 15 14 13 13 13 14 15 14 13 12 13 13 13 14 13 14 14
3 3 5 1 8 9 9 7 9 10 5 3 6 10 7 5 13 5 16 15 15 13 14 17 14 14 15 15 14 14 14 14 14 13 13 13 12 14 14 14 12 13 13 13 13 13 13 12 12
4 6 5 10 13 8 10 5 5 6 11 7 8 11 6 9 3 11 16 16 15 15 13 16 14 15 15 14 14 14 13 13 13 13 13 13 14 13 13 14 13 13 12 11 11 12 11 11 11
5 5 8 10 13 10 8 6 7 8 8 6 2 13 12 10 14 19 16 15 15 17 14 16 13 14 14 14 14 14 13 12 11 11 12 12 12 12 13 14 13 12 12 11 10 10 9 9 8
3 5 9 12 12 7 6 4 7 11 13 14 17 13 7 10 16 16 14 14 14 14 16 16 14 14 14 14 13 13 12 11 11 10 10 9 10 10 10 13 12 12 12 11 9 8 7 6 5
4 5 10 13 10 12 8 4 6 9 7 12 8 9 9 12 15 13 14 13 11 13 13 13 14 13 13 13 13 12 11 10 9 8 9 10 10 4 5 7 9 8 8 8 8 7 5 4 3
3 4 15 12 11 12 6 6 6 7 11 9 1 8 12 16 16 14 14 14 12 11 13 12 12 13 11 12 11 11 10 10 10 9 6 11 13 7 3 2 5 5 5 5 5 6 5 3 2
2 2 10 12 15 11 7 8 6 5 8 10 4 10 21 21 16 14 14 11 10 10 11 12 13 12 10 10 11 9 9 10 16 9 6 7 5 5 1 2 1 2 3 5 5 4 4 3 5
4 5 10 6 7 8 7 6 8 5 9 10 13 18 21 21 17 17 16 14 15 13 13 12 12 12 10 8 10 7 8 8 7 8 2 0 1 6 4 7 4 4 4 6 5 5 5 8 4
3 5 5 7 5 5 7 8 4 5 5 9 16 20 20 20 17 16 14 14 14 13 11 12 10 10 11 7 9 5 5 5 5 8 8 10 5 3 4 3 4 1 6 7 12 11 9 3 4
2 2 4 4 4 5 6 8 9 10 9 13 17 20 19 18 17 15 14 13 13 13 12 11 12 10 9 6 7 6 5 6 6 7 8 5 5 9 8 6 5 6 5 6 7 5 5 5 5
2 3 2 3 5 7 7 7 10 10 11 17 17 17 17 15 14 12 11 11 11 12 13 12 12 11 11 9 7 7 6 4 5 5 8 9 6 6 6 9 7 7 6 7 8 9 6 6 6
5 1 3 4 5 6 6 9 5 9 13 17 18 16 15 14 13 12 11 11 12 11 12 13 14 13 12 11 8 5 4 4 3 5 6 7 8 6 6 8 8 8 7 8 9 9 7 7 6
3 4 4 3 5 3 5 9 4 16 15 16 16 15 15 12 12 10 10 9 9 9 10 11 12 13 12 11 9 7 5 7 6 5 8 9 11 11 7 7 3 7 7 8 7 8 8 8 7
3 4 4 6 6 4 10 10 12 16 15 15 14 14 14 14 13 10 9 8 8 8 8 10 10 12 13 10 9 5 4 6 9 6 6 9 12 12 9 7 7 7 6 6 7 8 9 9 8
5 3 1 4 7 3 9 7 12 15 13 14 14 14 13 13 12 9 9 9 8 9 10 10 11 11 11 11 9 8 6 8 8 7 8 8 11 13 9 10 7 6 4 6 7 6 8 9 9
1 4 1 5 5 7 7 4 10 13 14 13 14 13 12 13 11 10 10 9 10 10 10 10 10 11 10 8 9 9 9 7 8 9 8 9 8 8 5 7 6 8 6 7 7 7 7 7 9
6 7 6 2 1 5 7 8 7 11 12 13 13 14 13 11 8 6 4 9 11 10 11 12 12 11 10 10 10 10 10 9 8 9 12 12 10 10 11 10 10 9 8 10 8 8 8 8 8
8 7 3 5 4 6 2 7 1 5 9 11 11 14 13 14 10 6 2 5 13 11 12 12 13 12 12 9 8 7 6 7 7 5 7 10 11 11 11 11 9 10 8 8 8 8 5 6 4
9 5 5 7 6 3 4 10 8 9 4 5 10 10 14 15 14 13 13 9 11 12 11 11 12 12 12 11 8 6 5 5 6 7 7 8 10 11 12 11 10 11 9 8 10 9 12 6 6
8 3 4 5 10 4 3 6 6 5 6 6 9 12 14 17 17 13 11 6 7 8 7 8 9 11 11 11 10 12 8 8 6 6 5 6 10 10 11 13 12 11 10 10 9 7 10 8 7
7 4 0 1 7 8 9 9 12 4 8 9 9 3 9 19 22 19 15 10 7 6 8 6 8 10 8 8 11 9 9 7 6 6 7 8 7 10 12 13 12 11 10 11 11 10 11 6 7
5 7 5 5 8 12 7 8 8 6 4 7 10 8 7 9 20 17 16 12 10 7 7 7 7 7 7 7 8 10 9 8 7 6 7 7 7 8 12 12 11 11 11 11 10 11 11 9 8
14 12 9 6 8 2 5 7 11 7 5 6 8 10 10 10 10 10 8 9 7 5 5 5 6 5 5 5 6 6 7 8 9 9 8 7 6 7 10 12 11 11 12 10 11 11 12 12 11
12 11 8 4 8 5 5 6 8 7 7 8 8 10 11 10 11 11 8 1 3 3 6 5 3 2 3 3 4 4 5 6 7 7 6 6 6 6 7 11 11 12 12 12 11 10 10 12 11
9 11 8 11 4 7 4 5 11 8 8 8 10 11 10 9 10 8 7 9 6 6 5 7 5 4 4 4 3 4 5 7 7 7 6 7 8 7 8 10 11 11 12 12 12 10 11 11 12
8 3 7 6 4 9 7 3 5 8 10 9 10 12 12 9 9 10 10 9 6 6 7 6 6 4 3 0 1 3 4 5 7 7 10 10 10 9 8 8 9 9 10 11 11 11 12 11 10
8 11 6 6 6 8 7 3 11 6 3 11 11 11 10 10 11 11 11 9 8 7 6 6 5 5 4 4 4 4 5 5 6 7 9 9 8 8 7 6 7 7 8 9 9 12 11 13 13
4 2 7 9 10 3 9 4 8 6 4 6 10 11 9 8 9 11 9 8 7 6 5 6 5 6 6 6 4 4 4 4 6 5 5 5 4 4 5 5 6 7 8 8 10 11 12 13 12
Wind_Direction
168 188 240 227 220 92 63 77 67 73 82 58 79 359 65 33 9 84 119 128 131 134 131 132 127 130 132 133 135 132 137 140 140 141 135 129 127 126 123 123 122 120 117 115 110 109 111 114 117
159 172 220 262 66 81 75 77 67 59 90 102 77 119 52 68 61 115 126 139 133 136 144 135 127 129 131 134 137 135 140 138 137 139 138 138 130 127 124 127 128 126 122 118 116 113 114 115 115
262 258 285 116 46 61 81 64 72 78 89 61 112 50 33 78 120 114 125 139 131 140 133 119 131 129 130 132 133 135 140 143 144 147 146 138 138 127 129 123 124 123 117 121 122 117 116 117 112
280 187 216 60 72 64 73 97 85 121 89 63 109 86 87 102 102 122 137 138 141 143 135 134 137 136 138 140 140 140 147 147 146 144 141 136 132 131 129 124 131 128 127 120 114 115 116 123 119
226 251 90 69 75 76 74 76 66 79 73 64 66 101 107 82 113 132 144 147 152 135 141 145 144 143 144 148 146 150 150 145 140 136 138 138 130 133 134 133 139 126 120 120 120 124 123 125 124
201 264 70 66 70 68 77 90 66 75 97 96 103 103 78 110 136 140 151 157 139 142 148 135 144 146 149 151 155 157 151 148 144 147 137 129 127 130 142 144 145 141 138 134 130 131 134 141 143
20 36 68 75 78 75 60 56 57 78 100 72 127 102 106 135 139 148 150 147 144 144 137 146 152 149 155 159 156 154 149 148 142 129 115 103 60 89 118 128 126 132 134 136 138 138 137 148 147
336 271 80 64 67 75 90 79 83 47 78 110 197 146 151 145 143 154 149 147 144 169 146 152 151 159 167 160 158 149 145 136 109 98 104 91 106 316 338 155 125 139 145 155 155 151 152 161 154
300 82 73 63 62 88 125 94 84 92 122 57 58 125 132 143 150 160 146 156 152 170 164 164 162 165 175 165 154 157 153 129 100 70 9 68 174 218 356 262 144 198 195 189 188 186 186 199 200
307 41 48 11 53 69 86 65 107 120 121 99 95 101 131 149 158 168 165 164 176 169 178 169 175 165 163 185 147 172 159 128 138 146 114 11 251 274 288 289 256 235 243 222 210 213 223 234 251
72 35 26 59 18 66 98 103 89 148 120 136 138 139 151 158 170 170 174 175 179 175 181 174 179 175 178 178 148 173 164 137 156 174 178 200 230 214 262 312 277 188 223 255 192 192 224 214 289
258 343 327 29 105 118 106 115 85 49 66 118 143 149 158 168 172 174 178 177 180 182 186 182 177 182 202 177 170 194 150 162 178 181 198 206 208 240 232 244 243 225 235 238 255 258 283 255 237
307 6 11 74 141 111 136 93 103 94 108 129 137 153 160 168 167 173 177 173 187 186 191 191 186 189 194 205 194 168 178 162 202 214 232 236 239 213 249 241 259 225 213 228 265 241 218 237 254
347 318 55 140 142 144 145 134 146 124 137 141 151 156 158 166 170 168 181 187 186 191 191 196 198 191 204 203 215 158 181 185 194 249 241 240 239 235 219 247 236 249 248 239 229 231 229 226 253
297 221 161 151 162 129 188 165 132 149 153 154 164 164 159 169 174 179 185 193 192 192 184 198 204 197 201 206 208 213 186 204 204 222 244 260 245 235 226 236 225 234 241 256 239 226 224 240 248
264 237 199 135 177 151 240 108 138 161 163 163 172 167 168 175 183 187 184 205 200 219 197 205 202 200 194 199 206 212 190 216 219 214 194 232 251 242 245 241 235 228 240 236 239 209 218 231 238
222 77 306 156 201 191 239 100 146 173 179 170 175 172 177 178 186 187 201 204 221 207 200 216 219 212 197 192 204 205 199 227 236 226 231 225 231 235 230 237 214 233 227 234 242 241 229 231 242
111 297 255 291 119 224 216 241 142 182 191 186 175 170 179 175 182 180 208 222 216 227 215 224 218 215 204 206 201 213 220 224 227 230 241 223 232 241 211 240 260 227 218 243 229 220 239 250 260
306 290 295 336 221 237 238 261 129 176 204 198 188 174 174 174 146 138 351 290 234 225 231 227 222 221 207 205 206 210 217 222 217 228 223 228 233 221 229 230 222 239 217 235 233 229 237 232 230
271 282 102 100 151 230 180 257 105 164 203 221 204 174 174 148 121 119 168 258 264 230 232 229 231 220 212 213 221 233 236 225 238 230 221 214 223 224 228 236 219 220 232 227 240 240 229 238 284
217 268 115 92 151 184 256 237 186 133 177 207 202 191 166 154 149 154 212 195 229 245 234 233 237 232 225 225 216 214 231 249 228 225 229 222 222 223 221 223 233 223 225 218 217 212 234 221 200
226 119 121 133 250 28 257 312 151 128 123 137 162 182 185 163 166 183 229 219 211 239 251 240 240 234 227 220 230 227 237 229 217 236 228 216 211 219 215 221 219 220 219 219 216 219 235 237 231
59 125 32 286 275 275 163 264 118 155 123 102 81 97 215 182 173 198 215 219 238 259 248 226 218 233 233 224 235 233 237 251 250 236 229 245 241 231 214 211 223 227 227 216 224 219 223 219 246
162 154 188 216 271 252 86 281 120 68 65 103 94 89 120 172 164 203 222 245 264 253 233 217 205 226 233 228 229 240 249 254 272 262 262 239 229 221 222 216 215 223 232 228 217 224 228 236 244
225 217 228 220 205 37 95 249 57 102 79 69 86 112 121 137 151 181 209 221 214 200 199 205 204 211 225 222 227 246 261 263 271 271 266 269 257 229 216 212 214 217 220 234 224 210 228 222 231
213 284 273 234 249 198 136 236 97 91 95 105 100 122 128 144 138 146 150 207 198 177 151 161 158 191 168 194 206 211 257 268 288 269 270 250 262 267 256 212 218 217 224 218 225 228 225 219 220
162 229 350 293 212 283 133 139 174 147 122 114 109 125 131 117 104 89 87 86 123 163 132 111 105 97 127 167 180 200 241 260 283 275 253 248 248 260 235 228 224 224 224 221 217 227 224 231 225
281 41 206 204 190 246 150 274 307 152 147 138 136 132 135 131 127 121 99 94 98 98 91 92 90 81 70 318 263 277 283 232 262 262 253 266 273 259 248 231 225 230 227 223 219 229 223 233 232
174 209 230 314 308 304 249 160 66 85 120 152 142 137 134 134 125 115 98 88 85 86 81 86 88 88 78 67 24 345 325 295 268 252 248 248 249 254 256 236 232 230 240 232 230 239 244 222 233
312 329 213 237 167 224 324 11 57 66 145 129 135 146 123 115 119 119 107 92 88 75 53 60 42 46 44 30 355 332 306 303 298 300 309 296 284 249 239 240 244 236 230 229 224 236 237 231 231